Change the Weather History Date:

Saturday, July 13, 2013

  Actual Average Record
Temperature  
Mean Temperature 74 °F -  
Max Temperature 77 °F 86 °F 100 °F (2011)
Min Temperature 71 °F 70 °F 62 °F (1999)
Cooling Degree Days 9    
Growing Degree Days 24 (Base 50)    
Moisture  
Dew Point 74 °F    
Average Humidity 99    
Maximum Humidity 100    
Minimum Humidity 94    
Precipitation  
Precipitation 0.26 in - - ()
Sea Level Pressure  
Sea Level Pressure 30.07 in    
Wind  
Wind Speed 6 mph (NE)    
Max Wind Speed 10 mph    
Max Gust Speed -    
Visibility 9 miles    
Events Rain , Thunderstorm    
Averages and records for this station are not official NWS values.
T = Trace of Precipitation, MM = Missing Value Source: NWS Daily Summary

Daily Weather History Graph

Daily Weather History Graph

Search for Another Location

Airport or City:

Trip Planner

Search our weather history database for the weather conditions in past years. The results will help you decide how hot, cold, wet, or windy it might be!

Date:

Astronomy

Jul. 13, 2013 Rise Set
Actual Time 6:11 AM EDT 8:31 PM EDT
Civil Twilight 5:42 AM EDT 9:00 PM EDT
Nautical Twilight 5:06 AM EDT 9:35 PM EDT
Astronomical Twilight 4:27 AM EDT 10:14 PM EDT
Moon 11:12 AM EDT (7/13) 11:25 PM EDT (7/13)
Length of Visible Light 15h 17m
Length of Day
14h 19m
Waxing Crescent, 25% of the Moon is Illuminated
Jul 13
Waxing Crescent
Jul 15
First Quarter
Jul 22
Full
Jul 29
Last Quarter
Aug 6
New

Hourly Weather History & Observations

Time (EDT) Temp. Dew Point Humidity Pressure Visibility Wind Dir Wind Speed Gust Speed Precip Events Conditions
12:42 AM 71.6 °F 71.6 °F 100% 30.01 in 10.0 mi NE 5.8 mph - N/A   Partly Cloudy
12:58 AM 71.2 °F 70.9 °F 99% 30.03 in 10.0 mi NE 5.8 mph - N/A   Scattered Clouds
1:00 AM 71.6 °F 71.6 °F 100% 30.01 in 10.0 mi NE 5.8 mph - N/A   Mostly Cloudy
1:28 AM 71.6 °F 71.6 °F 100% 30.00 in 10.0 mi NE 6.9 mph - N/A   Mostly Cloudy
1:32 AM 71.6 °F 71.6 °F 100% 30.00 in 10.0 mi NE 6.9 mph - N/A Rain Light Rain
1:43 AM 71.6 °F 71.6 °F 100% 30.01 in 10.0 mi NE 5.8 mph - N/A   Overcast
1:58 AM 71.6 °F 71.2 °F 99% 30.01 in 10.0 mi NNE 5.8 mph - 0.00 in   Overcast
2:05 AM 71.6 °F 71.6 °F 100% 30.02 in 10.0 mi NNE 4.6 mph - N/A Rain Light Rain
2:07 AM 71.6 °F 71.6 °F 100% 30.02 in 10.0 mi NNE 4.6 mph - N/A Rain Light Rain
2:13 AM 71.6 °F 71.6 °F 100% 30.02 in 10.0 mi North 3.5 mph - N/A Rain Light Rain
2:23 AM 71.6 °F 71.6 °F 100% 30.02 in 10.0 mi NE 4.6 mph - N/A   Overcast
2:39 AM 71.6 °F 71.6 °F 100% 30.02 in 10.0 mi North 4.6 mph - N/A   Overcast
2:58 AM 71.8 °F 71.4 °F 99% 30.04 in 10.0 mi North 4.6 mph - 0.00 in   Mostly Cloudy
3:14 AM 71.6 °F 71.6 °F 100% 30.02 in 10.0 mi North 3.5 mph - N/A   Mostly Cloudy
3:46 AM 71.6 °F 71.6 °F 100% 30.02 in 10.0 mi NE 4.6 mph - N/A Rain Light Rain
3:55 AM 71.6 °F 71.6 °F 100% 30.02 in 10.0 mi ENE 5.8 mph - N/A   Partly Cloudy
3:58 AM 71.6 °F 71.2 °F 99% 30.03 in 10.0 mi ENE 5.8 mph - 0.01 in   Partly Cloudy
4:11 AM 71.6 °F 71.6 °F 100% 30.02 in 10.0 mi ENE 6.9 mph - N/A Rain Light Rain
4:26 AM 71.6 °F 71.6 °F 100% 30.02 in 10.0 mi NE 6.9 mph - N/A   Clear
4:34 AM 71.6 °F 71.6 °F 100% 30.02 in 10.0 mi NE 6.9 mph - N/A Rain Light Rain
4:53 AM 71.6 °F 71.6 °F 100% 30.01 in 10.0 mi NE 6.9 mph - N/A   Clear
4:58 AM 71.6 °F 71.2 °F 99% 30.01 in 10.0 mi NE 6.9 mph - 0.00 in   Clear
5:31 AM 71.6 °F 71.6 °F 100% 30.02 in 10.0 mi North 1.2 mph - N/A   Partly Cloudy
5:47 AM 71.6 °F 71.6 °F 100% 30.03 in 10.0 mi North 3.5 mph - N/A   Mostly Cloudy
5:49 AM 71.6 °F 71.6 °F 100% 30.03 in 10.0 mi North 2.3 mph - N/A   Mostly Cloudy
5:58 AM 71.6 °F 71.2 °F 99% 30.04 in 10.0 mi North 2.3 mph - N/A   Mostly Cloudy
6:08 AM 71.6 °F 71.6 °F 100% 30.04 in 10.0 mi North 2.3 mph - N/A   Overcast
6:34 AM 71.6 °F 71.6 °F 100% 30.03 in 10.0 mi NNE 3.5 mph - N/A   Overcast
6:50 AM 71.6 °F 71.6 °F 100% 30.04 in 10.0 mi NE 4.6 mph - N/A   Overcast
6:58 AM 71.8 °F 71.4 °F 99% 30.05 in 10.0 mi NE 4.6 mph - N/A   Overcast
7:46 AM 71.6 °F 71.6 °F 100% 30.06 in 10.0 mi NE 5.8 mph - N/A   Overcast
7:58 AM 72.1 °F 72.0 °F 99% 30.06 in 10.0 mi NE 5.8 mph - N/A   Overcast
8:09 AM 71.6 °F 71.6 °F 100% 30.07 in 10.0 mi ENE 5.8 mph - N/A   Overcast
8:25 AM 73.4 °F 71.6 °F 94% 30.07 in 10.0 mi ENE 5.8 mph - N/A   Overcast
8:43 AM 73.4 °F 73.4 °F 100% 30.07 in 10.0 mi NE 5.8 mph - N/A   Overcast
8:58 AM 73.0 °F 72.7 °F 99% 30.09 in 10.0 mi ENE 8.1 mph - N/A   Overcast
12:58 PM 76.5 °F 76.1 °F 99% 30.12 in 10.0 mi NE 5.8 mph - 0.08 in   Mostly Cloudy
1:00 PM 77.0 °F 77.0 °F 100% 30.11 in 10.0 mi NNE 6.9 mph - N/A   Overcast
1:12 PM 77.0 °F 75.2 °F 94% 30.10 in 10.0 mi Variable 3.5 mph - N/A   Scattered Clouds
1:32 PM 77.0 °F 75.2 °F 94% 30.09 in 10.0 mi NE 4.6 mph - N/A Rain Light Rain
1:37 PM 77.0 °F 75.2 °F 94% 30.09 in 10.0 mi NE 4.6 mph - N/A Rain Light Rain
1:44 PM 75.2 °F 75.2 °F 100% 30.10 in 7.0 mi ENE 6.9 mph - N/A Rain , Thunderstorm Light Thunderstorms and Rain
1:46 PM 75.2 °F 75.2 °F 100% 30.10 in 6.0 mi ENE 6.9 mph - N/A Rain , Thunderstorm Light Thunderstorms and Rain
1:52 PM 75.2 °F 75.2 °F 100% 30.10 in 6.0 mi NE 3.5 mph - N/A Rain , Thunderstorm Light Thunderstorms and Rain
1:58 PM 75.6 °F 75.4 °F 99% 30.11 in 6.0 mi ENE 4.6 mph - 0.05 in Rain , Thunderstorm Thunderstorms and Rain
1:59 PM 75.2 °F 75.2 °F 100% 30.10 in 7.0 mi ENE 3.5 mph - N/A Rain Light Rain
2:07 PM 75.2 °F 75.2 °F 100% 30.10 in 5.0 mi NE 8.1 mph - N/A Rain Light Rain
2:11 PM 75.2 °F 75.2 °F 100% 30.09 in 3.0 mi NE 8.1 mph - N/A Rain Rain
2:19 PM 75.2 °F 75.2 °F 100% 30.09 in 5.0 mi ENE 6.9 mph - N/A Rain Light Rain
2:23 PM 75.2 °F 75.2 °F 100% 30.10 in 9.0 mi ENE 8.1 mph - N/A Rain Light Rain
2:25 PM 75.2 °F 75.2 °F 100% 30.10 in 10.0 mi ENE 8.1 mph - N/A Rain Light Rain
2:27 PM 75.2 °F 75.2 °F 100% 30.10 in 9.0 mi ENE 8.1 mph - N/A Rain Light Rain
2:29 PM 75.2 °F 75.2 °F 100% 30.10 in 7.0 mi ENE 8.1 mph - N/A Rain Light Rain
2:41 PM 75.2 °F 75.2 °F 100% 30.09 in 8.0 mi ENE 6.9 mph - N/A Rain Light Rain
2:47 PM 75.2 °F 75.2 °F 100% 30.10 in 10.0 mi ENE 6.9 mph - N/A   Scattered Clouds
2:51 PM 75.2 °F 75.2 °F 100% 30.10 in 10.0 mi ENE 5.8 mph - N/A Rain Light Rain
2:58 PM 75.4 °F 75.2 °F 99% 30.11 in 10.0 mi ENE 8.1 mph - 0.10 in Rain Light Rain
3:03 PM 75.2 °F 75.2 °F 100% 30.10 in 10.0 mi ENE 5.8 mph - N/A Rain Light Rain
3:39 PM 77.0 °F 77.0 °F 100% 30.09 in 10.0 mi NE 6.9 mph - N/A   Partly Cloudy
3:41 PM 77.0 °F 77.0 °F 100% 30.09 in 10.0 mi Variable 5.8 mph - N/A Rain Light Rain
3:58 PM 77.5 °F 77.2 °F 99% 30.09 in 10.0 mi ENE 8.1 mph - 0.01 in   Light Drizzle
4:02 PM 77.0 °F 77.0 °F 100% 30.08 in 10.0 mi NE 5.8 mph - N/A   Partly Cloudy
4:06 PM 77.0 °F 77.0 °F 100% 30.08 in 10.0 mi ENE 6.9 mph - N/A Rain Light Rain
4:15 PM 77.0 °F 77.0 °F 100% 30.09 in 10.0 mi ENE 9.2 mph - N/A   Partly Cloudy
4:36 PM 77.0 °F 77.0 °F 100% 30.09 in 10.0 mi East 10.4 mph - N/A Rain Light Rain
4:53 PM 75.2 °F 75.2 °F 100% 30.09 in 10.0 mi NE 9.2 mph - N/A   Clear
4:58 PM 75.9 °F 75.6 °F 99% 30.10 in 10.0 mi NE 9.2 mph - 0.01 in Thunderstorm Clear
5:58 PM 76.5 °F 76.3 °F 99% 30.09 in 10.0 mi ENE 9.2 mph - N/A   Clear
6:58 PM 77.2 °F 77.0 °F 99% 30.09 in 10.0 mi East 8.1 mph - N/A   Clear
7:58 PM 77.2 °F 75.9 °F 96% 30.09 in 10.0 mi East 8.1 mph - N/A   Partly Cloudy
8:35 PM 77.0 °F 75.2 °F 94% 30.11 in 9.0 mi East 8.1 mph - N/A Rain Light Rain
8:46 PM 77.0 °F 75.2 °F 94% 30.11 in 9.0 mi ESE 9.2 mph - N/A   Partly Cloudy
8:58 PM 76.1 °F 75.7 °F 99% 30.12 in 10.0 mi Variable 6.9 mph - 0.00 in   Scattered Clouds
10:58 PM 74.8 °F 74.5 °F 99% 30.15 in 10.0 mi ESE 8.1 mph - N/A   Clear
11:58 PM 74.1 °F 73.8 °F 99% 30.16 in 10.0 mi East 6.9 mph - N/A   Clear